Regional Weather Roundup
Issued by NWS

Home | Current Version | Previous Version | Graphics & Text | Print | Product List | Glossary On
Versions: 1 2 3 4 5 6 7 8 9 10 11 12 13 14 15 16 17 18 19 20 21 22 23 24 25 26 27 28 29 30 31 32 33 34 35 36 37 38 39 40 41 42 43 44 45 46 47 48 49 50
000
ASUS44 KMEG 291700
RWRTN
TENNESSEE HOURLY STATE WEATHER ROUNDUP
NATIONAL WEATHER SERVICE MEMPHIS TN
1200 PM CDT SUN MAR 29 2015

TNZ002-004-019-021-049-052-054-088>092-291800-
WEST TENNESSEE

CITY           SKY/WX    TMP DP  RH WIND       PRES   REMARKS
MEMPHIS INTL   CLOUDY    53  33  46 S14G20    30.22F
NWS MEMPHIS      N/A     51 N/A N/A MISG        N/A
JACKSON        PTSUNNY   54  24  31 S12G18    30.24F
DYERSBURG      CLOUDY   N/A N/A N/A S12G17    30.23F
UNION CITY     SUNNY     54  30  40 S15       30.21F
PARIS          MOSUNNY   54  21  28 S10       30.24F
LEXINGTON      SUNNY     54  18  24 S12       30.25F
SAVANNAH       SUNNY     54  25  32 S12       30.28F
$$

TNZ008-025-027-028-033-062-065-066-291800-
NORTH MIDDLE TENNESSEE

CITY           SKY/WX    TMP DP  RH WIND       PRES   REMARKS
NASHVILLE      SUNNY     54  14  20 S15G23    30.28F
CLARKSVILLE    SUNNY     53  17  24 S10       30.25F
COOKEVILLE     SUNNY     54  18  24 S8        30.27F
CROSSVILLE     SUNNY     48   9  20 S8G20     30.30F
$$

TNZ061-075-076-078-094-096-097-291800-
SOUTH MIDDLE TENNESSEE

CITY           SKY/WX    TMP DP  RH WIND       PRES   REMARKS
FAYETTEVILLE   SUNNY     50  18  27 SW12      30.30F
TULLAHOMA      SUNNY     52   7  16 SE12      30.29F
COLUMBIA       SUNNY     54  25  32 S9        30.26F
SHELBYVILLE    SUNNY     54  18  24 S14       30.29F
$$

TNZ017-018-042-046-047-291800-
NORTHEAST TENNESSEE

CITY           SKY/WX    TMP DP  RH WIND       PRES   REMARKS
TRI CITIES     SUNNY     44   8  23 CALM      30.32F
ELIZABETHTON   SUNNY     46  -6  11 CALM      30.31F
$$

TNZ012-013-036-069-073-074-291800-
CENTRAL EAST TENNESSEE

CITY           SKY/WX    TMP DP  RH WIND       PRES   REMARKS
KNOXVILLE      NOT AVBL
OAK RIDGE      SUNNY     50  13  22 S8        30.36F
GATLINBURG     SUNNY     46  10  23 VRB6      30.33F
$$

TNZ083-085-099-291800-
SOUTHEAST TENNESSEE

CITY           SKY/WX    TMP DP  RH WIND       PRES   REMARKS
CHATTANOOGA    SUNNY     52  13  21 VRB3      30.35F
$$

SKY/WX REPORTED AS FAIR MEANS FEW OR NO CLOUDS BELOW
12 THOUSAND FEET.



USA.gov is the U.S. government's official web portal to all federal, state and local government web resources and services.